Location: Waco, TX
(31.5480°N, 97.1670°W)
Time: 00:33:03
(UTC-06:00)

ISS - Pass Details

Date: 13 December 2017
Orbit: 403 x 407 km, 51.6° (Epoch: 12 December)

Event Time Altitude Azimuth Distance (km) Brightness Sun altitude
Rises 20:25:43 0° 302° (WNW) 2,320 - -37.2°
Reaches altitude 10° 20:28:02 10° 288° (WNW) 1,457 - -37.7°
Maximum altitude 20:30:45 24° 231° (SW) 873 - -38.3°
Drops below altitude 10° 20:33:27 10° 175° (S) 1,448 - -38.9°
Sets 20:35:44 0° 161° (SSE) 2,301 - -39.4°
